Regional Weather Roundup
Issued by NWS

Home | Current Version | Previous Version | Graphics & Text | Print | Product List | Glossary On
Versions: 1 2 3 4 5 6 7 8 9 10 11 12 13 14 15 16 17 18 19 20 21 22 23 24 25 26 27 28 29 30 31 32 33 34 35 36 37 38 39 40 41 42 43 44 45 46 47 48 49 50
000
ASUS43 KTOP 270959
RWRKS

WEATHER ROUNDUP FOR KANSAS
NATIONAL WEATHER SERVICE GOODLAND KS
400 AM CST MON FEB 27 2017

NOTE:  "FAIR" INDICATES FEW OR NO CLOUDS BELOW 12,000 FEET WITH NO
SIGNIFICANT WEATHER AND/OR OBSTRUCTIONS TO VISIBILITY.

KSZ001>006-013>018-027>032-041>047-271100-
NORTHWEST KANSAS

CITY           SKY/WX    TMP DP  RH WIND       PRES   REMARKS
GOODLAND       CLEAR     23  15  71 S15       29.80F WCI  10
HAYS           CLEAR     22  14  71 SE5       29.90F
HILL CITY      CLEAR     15   8  73 CALM      29.89F
RUSSELL        CLEAR     22  16  78 SE9       29.89F
$$

KSZ061>065-074>080-084>089-271100-
SOUTHWEST KANSAS

CITY           SKY/WX    TMP DP  RH WIND       PRES   REMARKS
DODGE CITY     CLEAR     25  20  81 SE9       29.87F
ELKHART          N/A     24  13  63 S8          N/A
GARDEN CITY    CLOUDY    22  16  78 SE7       29.84F
GREAT BEND     CLEAR     26  22  84 SE7       29.91F
LIBERAL        CLEAR     28  19  69 SE9       29.83F
$$

KSZ066>073-081>083-090>101-271100-
SOUTHEAST KANSAS

CITY           SKY/WX    TMP DP  RH WIND       PRES   REMARKS
CHANUTE        CLEAR     28  25  88 NE5       29.99S FOG
COFFEYVILLE    CLEAR     30  29  96 NE5       29.99S
HUTCHINSON     CLEAR     32  25  75 E8        29.94S
MEDICINE LODGE   N/A     34  27  75 SE5       29.92F
NEWTON         PTCLDY    28  26  92 E7        29.95F
PARSONS        CLEAR     32  30  92 E3        30.00S
WICHITA INTL   CLEAR     33  27  78 E5        29.94F
WICHITA JABRA  CLEAR     29  26  89 CALM      29.95S
WINFIELD       CLEAR     36  30  79 E6        29.96S
$$

KSZ007>012-019>026-033>040-048>060-102>105-271100-
NORTHEAST KANSAS

CITY           SKY/WX    TMP DP  RH WIND       PRES   REMARKS
CONCORDIA      CLEAR     26  18  71 S7        29.94F
EMPORIA        PTCLDY    25  24  96 E7        29.98S FOG
LAWRENCE       FOG       24  24 100 E3        30.03R VSB<1/4
MANHATTAN      CLEAR     23  20  88 N3        29.99F
OLATHE IND     FOG       25  25 100 SE5       30.02S VSB 1/4
OLATHE EXE     FOG       28  28 100 SE3       30.02R VSB 1/4
SALINA         CLEAR     29  21  72 CALM      29.95F
TOPEKA BILLARD FOG       27  27 100 CALM      30.02S VSB 1/4
TOPEKA FORBES  CLOUDY    24  22  91 CALM      30.01S FOG
$$




USA.gov is the U.S. government's official web portal to all federal, state and local government web resources and services.